Volver al catálogo

CZ-6A DEB

ActivoSSO
NORAD 54466·DEBRIS·🇨🇳 China

Lanzado Nov 11, 2022 desde Taiyuan Satellite Launch Center

Loading…

Próximos Pases (próximas 24 horas)

TLE

ActualizadoSource: Space-Track

Época: Sep 14, 2026, 10:54 UTC

1 54466U 22151GS  26257.45457128  .00000811  00000-0  41983-3 0  9992
2 54466  98.8252 268.6596 0030179  49.7886 310.5923 14.17480652198037

Sigue CZ-6A DEB en tiempo real con AllMySat

Download on the App Store